TimeCDT,TemperatureF,Dew PointF,Humidity,Sea Level PressureIn,VisibilityMPH,Wind Direction,Wind SpeedMPH,Gust SpeedMPH,PrecipitationIn,Events,Conditions,WindDirDegrees,DateUTC
12:15 AM,78.8,66.2,65,29.89,10.0,South,6.9,-,N/A,,Clear,180,2013-09-09 05:15:00
12:35 AM,78.8,66.2,65,29.89,10.0,South,3.5,-,N/A,,Clear,190,2013-09-09 05:35:00
12:55 AM,78.8,66.2,65,29.89,10.0,Calm,Calm,-,N/A,,Clear,0,2013-09-09 05:55:00
1:15 AM,77.0,64.4,65,29.89,10.0,South,6.9,-,N/A,,Clear,190,2013-09-09 06:15:00
1:35 AM,77.0,64.4,65,29.89,10.0,Calm,Calm,-,N/A,,Clear,0,2013-09-09 06:35:00
1:55 AM,77.0,64.4,65,29.89,10.0,Calm,Calm,-,N/A,,Clear,0,2013-09-09 06:55:00
2:15 AM,77.0,64.4,65,29.89,10.0,Calm,Calm,-,N/A,,Clear,0,2013-09-09 07:15:00
2:35 AM,77.0,64.4,65,29.89,10.0,Calm,Calm,-,N/A,,Clear,0,2013-09-09 07:35:00
2:55 AM,75.2,64.4,69,29.90,10.0,Calm,Calm,-,N/A,,Clear,0,2013-09-09 07:55:00
3:15 AM,73.4,64.4,73,29.89,10.0,Calm,Calm,-,N/A,,Clear,0,2013-09-09 08:15:00
3:35 AM,73.4,64.4,73,29.90,10.0,Calm,Calm,-,N/A,,Clear,0,2013-09-09 08:35:00
3:55 AM,73.4,64.4,73,29.90,10.0,Calm,Calm,-,N/A,,Clear,0,2013-09-09 08:55:00
4:15 AM,73.4,64.4,73,29.90,10.0,Calm,Calm,-,N/A,,Clear,0,2013-09-09 09:15:00
4:35 AM,71.6,64.4,78,29.90,10.0,Calm,Calm,-,N/A,,Clear,0,2013-09-09 09:35:00
4:55 AM,71.6,64.4,78,29.91,10.0,Calm,Calm,-,N/A,,Clear,0,2013-09-09 09:55:00
5:15 AM,71.6,64.4,78,29.91,10.0,Calm,Calm,-,N/A,,Clear,0,2013-09-09 10:15:00
5:35 AM,71.6,64.4,78,29.92,10.0,Calm,Calm,-,N/A,,Clear,0,2013-09-09 10:35:00
5:55 AM,71.6,64.4,78,29.92,10.0,Calm,Calm,-,N/A,,Clear,0,2013-09-09 10:55:00
6:15 AM,69.8,64.4,83,29.92,10.0,Calm,Calm,-,N/A,,Clear,0,2013-09-09 11:15:00
6:35 AM,69.8,64.4,83,29.92,10.0,Calm,Calm,-,N/A,,Clear,0,2013-09-09 11:35:00
6:55 AM,69.8,64.4,83,29.93,10.0,Calm,Calm,-,N/A,,Clear,0,2013-09-09 11:55:00
7:15 AM,69.8,64.4,83,29.93,10.0,Calm,Calm,-,N/A,,Clear,0,2013-09-09 12:15:00
7:35 AM,71.6,64.4,78,29.93,10.0,Calm,Calm,-,N/A,,Clear,0,2013-09-09 12:35:00
7:55 AM,71.6,64.4,78,29.93,10.0,Calm,Calm,-,N/A,,Clear,0,2013-09-09 12:55:00
8:15 AM,73.4,64.4,73,29.94,10.0,South,8.1,-,N/A,,Clear,170,2013-09-09 13:15:00
8:35 AM,77.0,64.4,65,29.94,10.0,Calm,Calm,-,N/A,,Clear,0,2013-09-09 13:35:00
8:55 AM,78.8,64.4,61,29.95,10.0,Calm,Calm,-,N/A,,Clear,0,2013-09-09 13:55:00
9:15 AM,80.6,64.4,58,29.95,10.0,SSW,6.9,-,N/A,,Clear,200,2013-09-09 14:15:00
9:35 AM,82.4,64.4,54,29.95,10.0,SW,10.4,-,N/A,,Clear,220,2013-09-09 14:35:00
9:55 AM,84.2,62.6,48,29.96,10.0,SW,9.2,-,N/A,,Clear,220,2013-09-09 14:55:00
10:15 AM,86.0,62.6,45,29.96,10.0,SW,10.4,-,N/A,,Clear,220,2013-09-09 15:15:00
10:35 AM,86.0,62.6,45,29.96,10.0,SW,8.1,16.1,N/A,,Clear,230,2013-09-09 15:35:00
10:55 AM,87.8,62.6,43,29.96,10.0,SW,9.2,17.3,N/A,,Clear,220,2013-09-09 15:55:00
11:15 AM,87.8,62.6,43,29.96,10.0,SW,12.7,-,N/A,,Clear,230,2013-09-09 16:15:00
11:35 AM,89.6,62.6,40,29.96,10.0,SW,13.8,20.7,N/A,,Clear,230,2013-09-09 16:35:00
11:55 AM,89.6,60.8,38,29.96,10.0,SW,11.5,18.4,N/A,,Clear,230,2013-09-09 16:55:00
12:15 PM,89.6,60.8,38,29.95,10.0,SW,12.7,20.7,N/A,,Clear,230,2013-09-09 17:15:00
12:55 PM,91.4,60.8,36,29.94,10.0,South,13.8,20.7,N/A,,Clear,190,2013-09-09 17:55:00
1:15 PM,91.4,59.0,34,29.94,10.0,SW,16.1,21.9,N/A,,Clear,230,2013-09-09 18:15:00
1:35 PM,-9999,-9999,N/A,29.93,10.0,South,12.7,21.9,N/A,,Clear,190,2013-09-09 18:35:00
1:55 PM,-9999,-9999,N/A,29.93,10.0,SSW,10.4,21.9,N/A,,Clear,210,2013-09-09 18:55:00
2:15 PM,95.0,57.2,28,29.93,10.0,SSW,15.0,21.9,N/A,,Clear,200,2013-09-09 19:15:00
2:35 PM,95.0,59.0,30,29.92,10.0,SW,11.5,19.6,N/A,,Clear,220,2013-09-09 19:35:00
2:55 PM,95.0,59.0,30,29.92,10.0,South,13.8,20.7,N/A,,Clear,190,2013-09-09 19:55:00
3:15 PM,95.0,55.4,26,29.91,10.0,South,16.1,24.2,N/A,,Clear,180,2013-09-09 20:15:00
3:35 PM,-9999,-9999,N/A,29.91,10.0,SSW,9.2,16.1,N/A,,Clear,200,2013-09-09 20:35:00
3:55 PM,-9999,-9999,N/A,29.91,10.0,South,9.2,20.7,N/A,,Clear,190,2013-09-09 20:55:00
4:15 PM,-9999,-9999,N/A,29.91,10.0,SSW,10.4,18.4,N/A,,Clear,200,2013-09-09 21:15:00
4:35 PM,95.0,53.6,25,29.91,10.0,South,12.7,16.1,N/A,,Clear,190,2013-09-09 21:35:00
4:55 PM,-9999,-9999,N/A,29.91,10.0,SW,11.5,16.1,N/A,,Clear,220,2013-09-09 21:55:00
5:15 PM,-9999,-9999,N/A,29.91,10.0,SSW,10.4,16.1,N/A,,Clear,210,2013-09-09 22:15:00
5:35 PM,-9999,-9999,N/A,29.91,10.0,SSW,3.5,16.1,N/A,,Clear,200,2013-09-09 22:35:00
5:55 PM,-9999,-9999,N/A,29.91,10.0,South,10.4,17.3,N/A,,Clear,190,2013-09-09 22:55:00
6:15 PM,-9999,-9999,N/A,29.91,10.0,Calm,Calm,-,N/A,,Clear,0,2013-09-09 23:15:00
6:35 PM,-9999,-9999,N/A,29.91,10.0,Calm,Calm,-,N/A,,Clear,0,2013-09-09 23:35:00
6:55 PM,89.6,57.2,33,29.91,10.0,South,4.6,-,N/A,,Clear,180,2013-09-09 23:55:00
7:15 PM,86.0,59.0,40,29.92,10.0,Calm,Calm,-,N/A,,Clear,0,2013-09-10 00:15:00
7:35 PM,86.0,59.0,40,29.92,10.0,Calm,Calm,-,N/A,,Clear,0,2013-09-10 00:35:00
7:55 PM,82.4,60.8,48,29.92,10.0,Calm,Calm,-,N/A,,Clear,0,2013-09-10 00:55:00
8:15 PM,80.6,60.8,51,29.93,10.0,Calm,Calm,-,N/A,,Clear,0,2013-09-10 01:15:00
8:35 PM,80.6,60.8,51,29.93,10.0,Calm,Calm,-,N/A,,Clear,0,2013-09-10 01:35:00
8:55 PM,78.8,60.8,54,29.94,10.0,Calm,Calm,-,N/A,,Clear,0,2013-09-10 01:55:00
9:15 PM,78.8,62.6,57,29.95,10.0,Calm,Calm,-,N/A,,Clear,0,2013-09-10 02:15:00
9:35 PM,78.8,62.6,57,29.95,10.0,Calm,Calm,-,N/A,,Clear,0,2013-09-10 02:35:00
9:55 PM,77.0,62.6,61,29.95,10.0,Calm,Calm,-,N/A,,Clear,0,2013-09-10 02:55:00
10:15 PM,77.0,62.6,61,29.95,10.0,Calm,Calm,-,N/A,,Clear,0,2013-09-10 03:15:00
10:35 PM,77.0,62.6,61,29.95,10.0,Calm,Calm,-,N/A,,Clear,0,2013-09-10 03:35:00
10:55 PM,75.2,62.6,65,29.96,10.0,Calm,Calm,-,N/A,,Clear,0,2013-09-10 03:55:00
11:15 PM,75.2,62.6,65,29.96,10.0,Calm,Calm,-,N/A,,Clear,0,2013-09-10 04:15:00
11:35 PM,75.2,62.6,65,29.97,10.0,Calm,Calm,-,N/A,,Clear,0,2013-09-10 04:35:00
11:55 PM,73.4,62.6,69,29.97,10.0,Calm,Calm,-,N/A,,Clear,0,2013-09-10 04:55:00